(224436) = 2005 UQ472

Discovered at Kitt Peak on 2005-10-30 by Spacewatch.

Orbit

Orbit type: Main Belt

Note: WebGL enabled browser required.

epoch2023-09-13.0
epoch JD2460200.5
perihelion date2021-02-23.91641
perihelion JD2459269.41641
argument of perihelion (°)85.64361
ascending node (°)104.65661
inclination (°)0.72954
eccentricity0.0680177
perihelion distance (AU)2.5632710
Tisserand w.r.t. Jupiter3.3
ΔV w.r.t. Earth (km/sec)10.0
semimajor axis (AU)2.7503430
mean anomaly (°)201.19271
mean daily motion (°/day)0.21608450
aphelion distance (AU)2.937
period (years)4.56
P-vector [x]-0.98380616
P-vector [y]-0.16908261
P-vector [z]-0.05946864
Q-vector [x]0.17881193
Q-vector [y]-0.90307953
Q-vector [z]-0.39047874
absolute magnitude17.01
phase slope0.15
uncertainty0
referenceMPEC 2023-X25
observations used247
oppositions15
arc length (days)8018
first opposition used2001
last opposition used2023
residual rms (arc-secs)0.82
perturbers coarse indicatorM-v
perturbers precise indicator003Ek
first observation date used2001-12-20.0
last observation date used2023-12-03.0
computer nameMPCLINUX
JD of orbit computation2456966.837382
perihelion JD uncertainty (days)1.4190E-04
argument of perihelion uncertainty (°)3.6000E-04
ascending node uncertainty (°)3.5885E-04
inclination uncertainty (°)3.9114E-06
eccentricity uncertainty 5.0375E-08
perihelion distance uncertainty (AU)1.2930E-07
Minimum Orbit Intersection Distances (in AU)
for orbit epoch: 2460200.5, reference: E2023-X25
Mercury2.13701
Venus1.84327
Earth1.56212
Mars0.91237
Jupiter2.01419
Saturn6.24045
Uranus15.8624
Neptune26.9082

Observations

252 total observations over interval: 2001 12 20.45383 – 2023 12 03.282480
These data are available for download (format description).

Date (UT) J2000 RA J2000 Dec Magn Location Ref
2001 12 20.45383 07 45 16.91 +21 15 18.3 21.7 V 691 – Steward Observatory, Kitt Peak-Spacewatch MPS 175742
2001 12 20.47610 07 45 15.88 +21 15 21.6 21.2 V 691 – Steward Observatory, Kitt Peak-Spacewatch MPS 175742
2001 12 20.49845 07 45 14.91 +21 15 23.8 21.6 V 691 – Steward Observatory, Kitt Peak-Spacewatch MPS 175742
2002 01 09.328320 07 27 45.201 +22 00 59.30 20.68 V 645 – Apache Point-Sloan Digital Sky Survey MPS 175742
2002 01 09.331792 07 27 44.983 +22 00 59.78 21.41   645 – Apache Point-Sloan Digital Sky Survey MPS 175742
2003 06 04.19081 14 35 48.19 -14 19 27.1 22.1 V 691 – Steward Observatory, Kitt Peak-Spacewatch MPS 286919
2003 06 04.22535 14 35 47.08 -14 19 23.8 22.0 V 691 – Steward Observatory, Kitt Peak-Spacewatch MPS 286919
2003 06 04.25303 14 35 46.19 -14 19 20.8 21.9 V 691 – Steward Observatory, Kitt Peak-Spacewatch MPS 286919
2004 08 22.35641 22 07 45.43 -12 22 40.3 20.5 V 691 – Steward Observatory, Kitt Peak-Spacewatch MPS 286919
2004 08 22.38504 22 07 43.94 -12 22 48.3 20.7 V 691 – Steward Observatory, Kitt Peak-Spacewatch MPS 286919
2004 08 22.41211 22 07 42.51 -12 22 56.1 20.6 V 691 – Steward Observatory, Kitt Peak-Spacewatch MPS 286919
2005 10 26.33988 03 58 25.90 +19 38 34.3 21.5 V 691 – Steward Observatory, Kitt Peak-Spacewatch MPS 155400
2005 10 26.35709 03 58 25.18 +19 38 33.1 21.5 V 691 – Steward Observatory, Kitt Peak-Spacewatch MPS 155400
2005 10 26.37436 03 58 24.48 +19 38 30.7 21.6 V 691 – Steward Observatory, Kitt Peak-Spacewatch MPS 155400
2005 10 30.34861 03 55 35.88 +19 30 10.4 20.8 V 691 – Steward Observatory, Kitt Peak-Spacewatch MPS 151147
2005 10 30.36591 03 55 35.07 +19 30 07.9 21.1 V 691 – Steward Observatory, Kitt Peak-Spacewatch MPS 151147
2005 10 30.38320 03 55 34.28 +19 30 05.8 21.3 V 691 – Steward Observatory, Kitt Peak-Spacewatch MPS 151147
2005 11 03.30824 03 52 30.32 +19 20 54.3 21.3 V 691 – Steward Observatory, Kitt Peak-Spacewatch MPS 151147
2005 11 03.32557 03 52 29.44 +19 20 52.0 21.6 V 691 – Steward Observatory, Kitt Peak-Spacewatch MPS 151147
2005 11 03.34291 03 52 28.56 +19 20 49.2 22.0 V 691 – Steward Observatory, Kitt Peak-Spacewatch MPS 151147
2005 11 22.09435 03 35 32.05 +18 27 55.6 20.9 V 691 – Steward Observatory, Kitt Peak-Spacewatch MPS 155400
2005 11 22.11167 03 35 31.07 +18 27 52.4 21.3 V 691 – Steward Observatory, Kitt Peak-Spacewatch MPS 155400
2005 11 22.12902 03 35 30.09 +18 27 49.9 20.8 V 691 – Steward Observatory, Kitt Peak-Spacewatch MPS 155400
2005 11 29.26446 03 28 59.01 +18 06 30.7 21.4 V G96 – Mt. Lemmon Survey MPS 153837
2005 11 29.27116 03 28 58.62 +18 06 29.8 21.2 V G96 – Mt. Lemmon Survey MPS 153837
2005 11 29.27781 03 28 58.18 +18 06 28.8 20.5 V G96 – Mt. Lemmon Survey MPS 153837
2005 11 29.28462 03 28 57.86 +18 06 28.1 21.5 V G96 – Mt. Lemmon Survey MPS 153837
2005 12 02.22604 03 26 25.11 +17 58 01.0 21.1 V G96 – Mt. Lemmon Survey MPS 153837
2005 12 02.23535 03 26 24.61 +17 57 59.5 20.8 V G96 – Mt. Lemmon Survey MPS 153837
2005 12 02.24450 03 26 24.14 +17 57 57.6 20.8 V G96 – Mt. Lemmon Survey MPS 153837
2005 12 02.25366 03 26 23.64 +17 57 56.2 20.9 V G96 – Mt. Lemmon Survey MPS 153837
2007 03 11.29549 10 37 45.55 +09 43 35.6 20.2 V G96 – Mt. Lemmon Survey MPS 203114
2007 03 11.30103 10 37 45.30 +09 43 37.4 19.7 V G96 – Mt. Lemmon Survey MPS 203114
2007 03 11.30663 10 37 45.01 +09 43 39.1 20.3 V G96 – Mt. Lemmon Survey MPS 203114
2007 03 11.31218 10 37 44.72 +09 43 40.5 20.6 V G96 – Mt. Lemmon Survey MPS 203114
2007 03 26.16535 10 27 25.16 +10 44 03.7 20.9 V G96 – Mt. Lemmon Survey MPS 205560
2007 03 26.17154 10 27 24.91 +10 44 04.6 21.2 V G96 – Mt. Lemmon Survey MPS 205560
2007 03 26.17759 10 27 24.69 +10 44 05.8 20.7 V G96 – Mt. Lemmon Survey MPS 205560
2007 03 26.18380 10 27 24.51 +10 44 07.0 20.8 V G96 – Mt. Lemmon Survey MPS 205560
2009 09 15.22869 00 45 43.49 +03 44 42.0 21.2 V 691 – Steward Observatory, Kitt Peak-Spacewatch MPS 295020
2009 09 15.24630 00 45 42.72 +03 44 37.4 21.0 V 691 – Steward Observatory, Kitt Peak-Spacewatch MPS 295020
2009 09 15.26390 00 45 41.97 +03 44 32.4 21.7 V 691 – Steward Observatory, Kitt Peak-Spacewatch MPS 295020
2009 10 16.17815 00 21 32.18 +01 08 51.7 21.2 V G96 – Mt. Lemmon Survey MPS 299399
2009 10 16.18552 00 21 31.78 +01 08 49.7 20.9 V G96 – Mt. Lemmon Survey MPS 299399
2009 10 16.19294 00 21 31.50 +01 08 48.3 20.9 V G96 – Mt. Lemmon Survey MPS 299399
2009 10 16.20050 00 21 31.06 +01 08 46.6 21.1 V G96 – Mt. Lemmon Survey MPS 299399
2012 03 15.42390 14 31 24.36 -13 47 41.1 21.2 V 691 – Steward Observatory, Kitt Peak-Spacewatch MPS 417051
2012 03 15.44168 14 31 24.15 -13 47 39.5 20.9 V 691 – Steward Observatory, Kitt Peak-Spacewatch MPS 417051
2012 03 15.44256 14 31 24.16 -13 47 39.6 20.7 V G96 – Mt. Lemmon Survey MPS 417051
2012 03 15.44944 14 31 24.02 -13 47 38.9 20.1 V G96 – Mt. Lemmon Survey MPS 417051
2012 03 15.45946 14 31 23.94 -13 47 38.0 21.0 V 691 – Steward Observatory, Kitt Peak-Spacewatch MPS 417051
2012 03 15.46335 14 31 23.84 -13 47 38.0 20.4 V G96 – Mt. Lemmon Survey MPS 417051
2012 03 27.36315 14 27 25.12 -13 25 06.2 20.9 V 691 – Steward Observatory, Kitt Peak-Spacewatch MPS 420046
2012 03 27.38093 14 27 24.61 -13 25 03.2 20.7 V 691 – Steward Observatory, Kitt Peak-Spacewatch MPS 420046
2012 03 27.39871 14 27 24.03 -13 25 00.6 20.9 V 691 – Steward Observatory, Kitt Peak-Spacewatch MPS 420046
2012 03 31.35061 14 25 17.66 -13 13 50.0 21.3 V 691 – Steward Observatory, Kitt Peak-Spacewatch MPS 420046
2012 03 31.36839 14 25 16.97 -13 13 46.6 21.3 V 691 – Steward Observatory, Kitt Peak-Spacewatch MPS 420046
2012 03 31.38616 14 25 16.37 -13 13 43.2 20.9 V 691 – Steward Observatory, Kitt Peak-Spacewatch MPS 420046
2012 04 19.26955 14 11 21.40 -12 01 33.5 20.2 V G96 – Mt. Lemmon Survey MPS 421691
2012 04 19.28461 14 11 20.58 -12 01 30.1 20.0 V G96 – Mt. Lemmon Survey MPS 421691
2012 04 19.29220 14 11 20.18 -12 01 28.2 19.9 V G96 – Mt. Lemmon Survey MPS 421692
2012 04 27.42606 14 04 25.306 -11 25 51.28 20.3 w F51 – Pan-STARRS 1, Haleakala MPS 423565
2012 04 27.44103 14 04 24.512 -11 25 47.35 20.2 w F51 – Pan-STARRS 1, Haleakala MPS 423565
2012 04 27.45602 14 04 23.718 -11 25 43.41 20.3 w F51 – Pan-STARRS 1, Haleakala MPS 423565
2012 04 27.47099 14 04 22.927 -11 25 39.53 20.1 w F51 – Pan-STARRS 1, Haleakala MPS 423565
2012 05 13.23553 13 52 16.89 -10 23 53.8 20.5 V G96 – Mt. Lemmon Survey MPS 424787
2012 05 13.24234 13 52 16.68 -10 23 52.3 20.4 V G96 – Mt. Lemmon Survey MPS 424787
2012 05 13.24910 13 52 16.35 -10 23 51.5 20.6 V G96 – Mt. Lemmon Survey MPS 424787
2012 05 13.25589 13 52 16.06 -10 23 50.0 20.4 V G96 – Mt. Lemmon Survey MPS 424787
2012 05 25.19225 13 45 55.22 -09 52 58.1 21.0 V G96 – Mt. Lemmon Survey MPS 425846
2012 05 25.20031 13 45 55.08 -09 52 57.6 21.0 V G96 – Mt. Lemmon Survey MPS 425846
2012 05 25.20819 13 45 54.79 -09 52 55.9 20.8 V G96 – Mt. Lemmon Survey MPS 425846
2012 05 25.21616 13 45 54.61 -09 52 55.8 20.9 V G96 – Mt. Lemmon Survey MPS 425846
2013 07 14.50118 21 53 17.622 -13 23 36.62 21.4 w F51 – Pan-STARRS 1, Haleakala MPS 472505
2013 07 14.51723 21 53 17.113 -13 23 39.34 21.3 w F51 – Pan-STARRS 1, Haleakala MPS 472505
2013 07 14.53268 21 53 16.626 -13 23 42.14 21.4 w F51 – Pan-STARRS 1, Haleakala MPS 472505
2013 07 14.54903 21 53 16.117 -13 23 44.75 21.3 w F51 – Pan-STARRS 1, Haleakala MPS 472505
2013 08 29.35174 21 18 32.354 -16 24 55.33 21.1 w F51 – Pan-STARRS 1, Haleakala MPS 474769
2013 08 29.36559 21 18 31.713 -16 24 58.07 21.1 w F51 – Pan-STARRS 1, Haleakala MPS 474769
2013 08 29.37941 21 18 31.069 -16 25 01.04 21.1 w F51 – Pan-STARRS 1, Haleakala MPS 474769
2013 08 29.39323 21 18 30.447 -16 25 03.76 21.2 w F51 – Pan-STARRS 1, Haleakala MPS 474769
2014 09 30.44078 03 26 37.92 +17 50 56.0 21.2 V G96 – Mt. Lemmon Survey MPS 538387
2014 09 30.44637 03 26 37.82 +17 50 55.1 22.0 V G96 – Mt. Lemmon Survey MPS 538388
2014 09 30.45198 03 26 37.76 +17 50 55.2 21.1 V G96 – Mt. Lemmon Survey MPS 538388
2014 09 30.45757 03 26 37.63 +17 50 54.4 22.1 V G96 – Mt. Lemmon Survey MPS 538388
2014 10 22.23966 03 15 19.97 +17 05 48.5 21.4 V 691 – Steward Observatory, Kitt Peak-Spacewatch MPS 541855
2014 10 22.25993 03 15 19.06 +17 05 44.9 21.1 V 691 – Steward Observatory, Kitt Peak-Spacewatch MPS 541855
